User: anonymous   Login
Location: Gleizolles
(44.4833°N, 6.7667°E)
Time: 05:25:52
(UTC+00:00)
Language:

XW-2D - Orbit

View from above orbital plane
View from above orbital plane
View from above satellite
View from above satellite

Ground track
Ground track

The orbit data is extracted from the following two-line orbital elements,

1 40907U 15049J   23336.94969077  .00024364  00000-0  70794-3 0  9996
2 40907  97.4881 346.3802 0006783 281.4360  78.6121 15.35446159454318
Epoch (UTC): 02 December 2023 22:47:33
Eccentricity: 0.0006783
inclination: 97.4881°
perigee height: 455 km
apogee height: 464 km
right ascension of ascending node: 346.3802°
argument of perigee: 281.4360°
revolutions per day: 15.35446159
mean anomaly at epoch: 78.6121°
orbit number at epoch: 45431

The dashed part of the orbit path shows where the satellite is in the earth's shadow,  

DLR